Regional Weather Roundup
Issued by NWS

Home | Current Version | Previous Version | Graphics & Text | Print | Product List | Glossary On
Versions: 1 2 3 4 5 6 7 8 9 10 11 12 13 14 15 16 17 18 19 20 21 22 23 24 25 26 27 28 29 30 31 32 33 34 35 36 37 38 39 40 41 42 43 44 45 46 47 48 49 50
040
ASUS44 KLIX 171105
RWRLA
LOUISIANA WEATHER ROUNDUP
NATIONAL WEATHER SERVICE NEW ORLEANS LA
600 AM CDT THU APR 17 2014

NOTE: "FAIR" INDICATES FEW OR NO CLOUDS BELOW 12,000 FEET WITH NO
      SIGNIFICANT WEATHER AND/OR OBSTRUCTIONS TO VISIBILITY.
      SKY/WX - SKY CONDITION AND SIGNIFICANT WEATHER.
      TMP - AIR TEMPERATURE.    DP   - DEWPOINT TEMPERATURE.
      RH  - RELATIVE HUMIDITY.  PRES - PRESSURE.
      HX  - HEAT INDEX.         WCI  - WIND CHILL INDEX.

*  THESE STATIONS ARE NOT NWS OR FAA STATIONS AND ARE NOT UNDER
   NWS QUALITY CONTROL.

LAZ040-048-061>063-065-066-069-171200-
SOUTHEAST LOUISIANA

CITY           SKY/WX    TMP DP  RH WIND       PRES   REMARKS
N.O. AUDUBON     N/A     58  47  65 MISG        N/A
N.O. INTL ARPT CLOUDY    58  54  86 NE5       30.13R
N.O. LAKEFRONT CLOUDY    59  55  87 N9        30.14R
N.O. DOWNTOWN* CLOUDY    59  48  67 CALM      30.14R
SLIDELL        CLOUDY    52  49  89 N5        30.15R
BATON ROUGE    CLOUDY    51  45  79 CALM      30.15R
BOOTHVILLE     CLEAR     58  53  84 CALM      30.10S
BELLE CHASSE   CLOUDY    57  52  83 N5        30.12R
BOGALUSA*        N/A     49  46  88 NE3       30.18R
GALLIANO*      CLOUDY    63  53  69 E5        30.11R
NEW ROADS*     CLOUDY    50  47  89 CALM      30.16R
GONZALES*      CLOUDY    52  49  89 N3        30.14R
HAMMOND*       CLOUDY    50  46  87 CALM      30.17R
HOUMA*           N/A     56  51  81 N8        30.11S
PORT FOURCHON* CLOUDY    64  54  68 SE9       30.12R

$$

LAZ041-044-053-054-171200-
SOUTHWEST LOUISIANA

CITY           SKY/WX    TMP DP  RH WIND       PRES   REMARKS
LAKE CHARLES   MOCLDY    53  49  86 E10       30.10F
LAFAYETTE      MOCLDY    50  47  89 NE6       30.13S
PATTERSON      CLOUDY    55  48  76 NE9         N/A
SALT POINT       N/A     58  50  75 CALM      30.10S
NEW IBERIA     CLOUDY    54  49  83 NE7       30.13R
CHENAULT AIRPK PTCLDY    54  48  82 E5        30.12R

$$

LAZ027-028-171200-
CENTRAL LOUISIANA

CITY           SKY/WX    TMP DP  RH WIND       PRES   REMARKS
FORT POLK      MOCLDY    50  46  86 CALM      30.13R
ALEXANDRIA INT PTCLDY    48  44  86 E5        30.14R
ALEXANDRIA     PTCLDY    41  39  93 E5        30.15S

$$

LAZ001-002-171200-
NORTHWEST LOUISIANA

CITY           SKY/WX    TMP DP  RH WIND       PRES   REMARKS
SHREVEPORT     PTCLDY    45  41  86 CALM      30.14R
BARKSDALE AFB  MOCLDY    44  41  91 CALM      30.15R
DTN SHREVEPORT PTCLDY    42  40  92 CALM      30.15R

$$

LAZ014-016-171200-
NORTHEAST LOUISIANA

CITY           SKY/WX    TMP DP  RH WIND       PRES   REMARKS
MONROE         PTCLDY    42  40  92 CALM      30.18S
TALLULAH       PTCLDY    48  44  86 SE5       30.19S

$$




USA.gov is the U.S. government's official web portal to all federal, state and local government web resources and services.